Simultaneous Nadir Overpasses (SNOs) Predictions

Prediction of SNOs between NOAA-20 and NOAA-19 Satellite Orbit:

Table of predicted SNOs for the next 14.0 days since TLE Epoch: 2/15/2025
Index Date (NOAA-20) Time (NOAA-20) Lat,Lon (NOAA-20) SZA (NOAA-20 ) Date (NOAA-19) Time (NOAA-19) Lat,Lon (NOAA-19) SZA (NOAA-19 ) Distance(km) Time Diff (sec)
1 02/15/2025 04:12:03 71.78, 110.19 84.57 02/15/2025 04:12:49 71.80, 110.21 84.58 1.71 46
2 02/15/2025 05:02:47 -71.80, -82.52 95.43 02/15/2025 05:03:52 -71.80, -82.54 95.44 0.81 65
3 02/15/2025 05:53:33 71.79, 84.81 84.56 02/15/2025 05:54:46 71.79, 84.71 84.54 3.31 73
4 02/15/2025 06:44:29 -72.42,-109.09 94.77 02/15/2025 06:45:37 -72.40,-106.84 94.93 75.62 68



Historial Predications of SNOs between NOAA-20 and NOAA-19
